• In Belarus
  • List of Countries
  • For 7 days
  • Water Temperature
  • Weather Map
  • Weather Widgets
  • user-avatar
    Login

    Hourly Weather Canillo

    Today, 17 November, Sunday

    Time Temperature Precipitation Wind Pressure Humidity
    00:00 -6°C° 0 mm 2 mps 609 mmHg 91%
    01:00 -5°C° 0.7 mm 2 mps 609 mmHg 92%
    02:00 -3°C° 0.7 mm 1 mps 608 mmHg 92%
    03:00 -3°C° 0.7 mm 1 mps 608 mmHg 93%
    04:00 -3°C° 0.4 mm 1 mps 608 mmHg 93%
    05:00 -3°C° 0.4 mm 1 mps 608 mmHg 93%
    06:00 -6°C° 0.4 mm 2 mps 608 mmHg 93%
    07:00 -3°C° 0.1 mm 1 mps 608 mmHg 89%
    08:00 -2°C° 0.1 mm 1 mps 609 mmHg 85%
    09:00 0°C° 0.1 mm 1 mps 609 mmHg 80%
    10:00 +1°C° 0 mm 1 mps 610 mmHg 78%
    11:00 +2°C° 0 mm 1 mps 610 mmHg 76%
    12:00 +3°C° 0 mm 1 mps 610 mmHg 74%
    13:00 +2°C° 0 mm 1 mps 610 mmHg 77%
    14:00 +2°C° 0 mm 1 mps 609 mmHg 80%
    15:00 +1°C° 0 mm 1 mps 609 mmHg 84%
    16:00 0°C° 0.1 mm 1 mps 609 mmHg 87%
    17:00 -1°C° 0.1 mm 1 mps 608 mmHg 91%
    18:00 -3°C° 0.1 mm 0 mps 608 mmHg 95%
    19:00 -3°C° 0.2 mm 0 mps 608 mmHg 95%
    20:00 -2°C° 0.2 mm 1 mps 608 mmHg 96%
    21:00 -2°C° 0.2 mm 1 mps 608 mmHg 96%
    22:00 -3°C° 0.4 mm 0 mps 608 mmHg 96%
    23:00 -3°C° 0.4 mm 0 mps 608 mmHg 96%

    Tomorrow, 18 November, Monday

    Time Temperature Precipitation Wind Pressure Humidity
    00:00 -3°C° 0.4 mm 0 mps 608 mmHg 96%
    01:00 -2°C° 0.3 mm 1 mps 608 mmHg 96%
    02:00 -2°C° 0.3 mm 1 mps 608 mmHg 95%
    03:00 -3°C° 0.3 mm 1 mps 608 mmHg 95%
    04:00 -3°C° 0.5 mm 1 mps 608 mmHg 95%
    05:00 -5°C° 0.5 mm 2 mps 609 mmHg 95%
    06:00 -5°C° 0.5 mm 2 mps 609 mmHg 95%
    07:00 -4°C° 0.5 mm 2 mps 610 mmHg 92%
    08:00 -3°C° 0.5 mm 2 mps 611 mmHg 90%
    09:00 -2°C° 0.5 mm 2 mps 611 mmHg 87%
    10:00 -2°C° 0.3 mm 2 mps 612 mmHg 85%
    11:00 -2°C° 0.3 mm 2 mps 612 mmHg 84%
    12:00 -1°C° 0.3 mm 2 mps 612 mmHg 82%
    13:00 -2°C° 0 mm 2 mps 612 mmHg 83%
    14:00 -2°C° 0 mm 2 mps 611 mmHg 84%
    15:00 -3°C° 0 mm 2 mps 611 mmHg 85%
    16:00 -4°C° 0 mm 2 mps 611 mmHg 87%
    17:00 -6°C° 0 mm 2 mps 611 mmHg 88%
    18:00 -7°C° 0 mm 2 mps 610 mmHg 90%
    19:00 -7°C° 0 mm 2 mps 610 mmHg 90%
    20:00 -7°C° 0 mm 2 mps 611 mmHg 90%
    21:00 -7°C° 0 mm 2 mps 611 mmHg 91%
    22:00 -8°C° 0 mm 2 mps 611 mmHg 84%
    23:00 -8°C° 0 mm 2 mps 611 mmHg 78%

    Day after tomorrow, 19 November, Tuesday

    Time Temperature Precipitation Wind Pressure Humidity
    00:00 -9°C° 0 mm 2 mps 611 mmHg 72%
    01:00 -9°C° 0 mm 2 mps 611 mmHg 71%
    02:00 -9°C° 0 mm 2 mps 611 mmHg 70%
    03:00 -9°C° 0 mm 2 mps 611 mmHg 69%
    04:00 -9°C° 0 mm 2 mps 611 mmHg 68%
    05:00 -8°C° 0 mm 2 mps 611 mmHg 68%
    06:00 -8°C° 0 mm 2 mps 611 mmHg 67%
    07:00 -4°C° 0 mm 1 mps 612 mmHg 66%
    08:00 -2°C° 0 mm 1 mps 613 mmHg 65%
    09:00 0°C° 0 mm 1 mps 615 mmHg 63%
    10:00 +1°C° 0 mm 1 mps 615 mmHg 64%
    11:00 +2°C° 0 mm 1 mps 615 mmHg 65%
    12:00 +2°C° 0 mm 1 mps 615 mmHg 66%
    13:00 +2°C° 0 mm 1 mps 615 mmHg 68%
    14:00 +2°C° 0 mm 1 mps 614 mmHg 71%
    15:00 +1°C° 0 mm 1 mps 614 mmHg 73%
    16:00 0°C° 0 mm 1 mps 613 mmHg 72%
    17:00 -2°C° 0 mm 1 mps 613 mmHg 72%
    18:00 -4°C° 0 mm 1 mps 612 mmHg 71%
    19:00 -4°C° 0 mm 1 mps 612 mmHg 70%
    20:00 -6°C° 0 mm 2 mps 612 mmHg 69%
    21:00 -6°C° 0 mm 2 mps 612 mmHg 68%
    22:00 -6°C° 0 mm 2 mps 612 mmHg 67%
    23:00 -6°C° 0 mm 2 mps 612 mmHg 67%

    20 November, Wednesday

    Time Temperature Precipitation Wind Pressure Humidity
    00:00 -6°C° 0 mm 2 mps 611 mmHg 66%
    01:00 -6°C° 0 mm 2 mps 611 mmHg 65%
    02:00 -6°C° 0 mm 2 mps 611 mmHg 63%
    03:00 -6°C° 0 mm 2 mps 611 mmHg 62%
    04:00 -6°C° 0 mm 2 mps 611 mmHg 63%
    05:00 -7°C° 0 mm 2 mps 610 mmHg 64%
    06:00 -7°C° 0 mm 2 mps 610 mmHg 66%
    07:00 -5°C° 0 mm 2 mps 611 mmHg 67%
    08:00 -4°C° 0 mm 2 mps 611 mmHg 68%
    09:00 -2°C° 0 mm 3 mps 612 mmHg 69%
    10:00 -1°C° 0 mm 3 mps 612 mmHg 69%
    11:00 0°C° 0 mm 3 mps 612 mmHg 70%
    12:00 0°C° 0 mm 3 mps 612 mmHg 71%
    13:00 0°C° 0 mm 3 mps 611 mmHg 74%
    14:00 0°C° 0 mm 3 mps 611 mmHg 77%
    15:00 -1°C° 0 mm 3 mps 611 mmHg 79%
    16:00 -2°C° 0 mm 3 mps 610 mmHg 83%
    17:00 -4°C° 0 mm 3 mps 610 mmHg 88%
    18:00 -5°C° 0 mm 3 mps 609 mmHg 92%
    19:00 -5°C° 0.1 mm 3 mps 609 mmHg 93%
    20:00 -5°C° 0.1 mm 3 mps 609 mmHg 93%
    21:00 -5°C° 0.1 mm 3 mps 609 mmHg 94%
    22:00 -4°C° 0.3 mm 3 mps 609 mmHg 94%
    23:00 -4°C° 0.3 mm 3 mps 609 mmHg 95%

    21 November, Thursday

    Time Temperature Precipitation Wind Pressure Humidity
    00:00 -2°C° 0.3 mm 3 mps 609 mmHg 95%
    01:00 -4°C° 0.1 mm 3 mps 609 mmHg 95%
    02:00 -4°C° 0.1 mm 3 mps 608 mmHg 95%
    03:00 -4°C° 0.1 mm 3 mps 608 mmHg 95%
    04:00 -4°C° 0.3 mm 3 mps 608 mmHg 95%
    05:00 -4°C° 0.3 mm 3 mps 607 mmHg 95%
    06:00 -4°C° 0.3 mm 3 mps 607 mmHg 95%
    07:00 -2°C° 0.8 mm 3 mps 608 mmHg 94%
    08:00 -2°C° 0.8 mm 3 mps 608 mmHg 94%
    09:00 -1°C° 0.8 mm 3 mps 608 mmHg 94%
    10:00 -1°C° 0.4 mm 3 mps 608 mmHg 94%
    11:00 0°C° 0.4 mm 3 mps 608 mmHg 94%
    12:00 0°C° 0.4 mm 3 mps 608 mmHg 94%
    13:00 0°C° 0.3 mm 3 mps 608 mmHg 94%
    14:00 0°C° 0.3 mm 3 mps 608 mmHg 94%
    15:00 0°C° 0.3 mm 3 mps 608 mmHg 94%
    16:00 -1°C° 0.1 mm 3 mps 608 mmHg 95%
    17:00 -1°C° 0.1 mm 3 mps 608 mmHg 95%
    18:00 -2°C° 0.1 mm 3 mps 608 mmHg 95%
    19:00 -1°C° 0.1 mm 3 mps 608 mmHg 95%
    20:00 -1°C° 0.1 mm 3 mps 608 mmHg 95%
    21:00 -1°C° 0.1 mm 3 mps 608 mmHg 95%
    22:00 -1°C° 0.3 mm 3 mps 608 mmHg 96%
    23:00 -1°C° 0.3 mm 3 mps 608 mmHg 96%

    22 November, Friday

    Time Temperature Precipitation Wind Pressure Humidity
    00:00 -1°C° 0.3 mm 3 mps 608 mmHg 96%
    01:00 -1°C° 0.5 mm 3 mps 608 mmHg 96%
    02:00 -1°C° 0.5 mm 3 mps 607 mmHg 96%
    03:00 -1°C° 0.5 mm 3 mps 607 mmHg 96%
    04:00 -1°C° 0.3 mm 3 mps 607 mmHg 96%
    05:00 -1°C° 0.3 mm 2 mps 607 mmHg 96%
    06:00 -1°C° 0.3 mm 2 mps 607 mmHg 96%
    07:00 -1°C° 0.1 mm 2 mps 608 mmHg 96%
    08:00 -1°C° 0.1 mm 2 mps 608 mmHg 95%
    09:00 +2°C° 0.1 mm 1 mps 608 mmHg 94%
    10:00 +2°C° 0 mm 1 mps 609 mmHg 93%
    11:00 +2°C° 0 mm 1 mps 609 mmHg 92%
    12:00 +3°C° 0 mm 1 mps 609 mmHg 91%
    13:00 +2°C° 0 mm 1 mps 609 mmHg 91%
    14:00 +2°C° 0 mm 1 mps 609 mmHg 91%
    15:00 +1°C° 0 mm 0 mps 608 mmHg 92%
    16:00 +1°C° 0 mm 1 mps 608 mmHg 93%
    17:00 0°C° 0 mm 1 mps 608 mmHg 94%
    18:00 -1°C° 0 mm 1 mps 608 mmHg 94%
    19:00 -1°C° 0 mm 1 mps 609 mmHg 94%
    20:00 -1°C° 0 mm 1 mps 609 mmHg 94%
    21:00 -1°C° 0 mm 1 mps 609 mmHg 94%
    22:00 -2°C° 0 mm 1 mps 609 mmHg 93%
    23:00 -2°C° 0 mm 1 mps 609 mmHg 93%
    Show more